星链-3283 (STARLINK-3283 )

导读

STARLINK-3283是美国太空探索技术公司星链星座的卫星,星链计划旨在构建全球卫星互联网服务。该卫星于2021年12月18日发射,在低轨轨道运行,可为全球偏远地区等场景提供网络接入服务,也扩充了星链星座的覆盖能力与服务容量,是星链大规模组网进程中的一颗组网卫星。

Basic Information
目录编号:
50179
目录名称:
STARLINK-3283
国际标识:
2021-125Z
轨道中心:
EARTH
卫星名称:
星链-3283
卫星全名:
星链-3283 (STARLINK-3283 )
卫星状态:
在轨 (已飞行1721 天)
发射日期:
2021-12-18 UTC
国别 :
美国 (US)
星等 :
--
Orbit Information
数据来源 国际轨道数据
星历时间: 2026-09-04T12:02:35+0800
4小时前
查看轨道信息
半长轴: 6848.869km
偏心率: 0.0001438
轨道倾角: 53.161°
近地点辐角 91.642°
升交点赤经 157.801°
平近点角 268.475°
近地点: 469.747km
远地点: 471.717km
周期: 94.013分钟
每日圈数: 15.317029
Detailed Information
固有亮度:
5
最大亮度:
2.5
卫星平台:
Starlink v1.5
覆盖范围:
全球
运营商:
太空探索技术公司
运营商所在国:
美国
制造商(研发单位):
太空探索技术公司
制造商所在国:
美国
使用方式:
暂无
Satellite Introduction
星链(Starlink)计划是由太空探索技术公司(SpaceX)提出的一个巨型低轨卫星互联网星座项目,计划在2019年至2024年间在太空搭建由约1.2万颗卫星组成的“星链”网络,其中1584颗将部署在地球上空550千米处的近地轨道,并从2020年开始工作。该卫星仍在工作。
2D Orbit Map
3D Orbit Map
Orbit Altitude Analysis Chart
Orbit Inclination Analysis Chart
Orbit Comprehensive Analysis Chart
View Comprehensive Chart
Conjunction Data List
Event ID Objects TCA Miss Dist (km) Collision Risk Probability Collision Risk Index (CRI) Action
CDM_260901-085905-017905-315921
2026-09-01T
08:59:02+0000
0.490 km
远距离
1.455695E-4 高风险 0.78
CDM_260904-184005-017906-774421
2026-09-04T
18:40:33+0000
1.803 km
极远距离
3.692788E-6 低风险 0.46
CDM_260905-160605-017905-802021
NESS (58020)
2026-09-05T
16:06:35+0000
1.959 km
极远距离
3.01196E-6 低风险 0.45
CDM_260904-122005-017906-971821
2026-09-04T
12:20:42+0000
2.427 km
极远距离
1.755501E-6 低风险 0.4
CDM_260905-054105-017906-756821
2026-09-05T
05:41:13+0000
2.683 km
极远距离
1.538984E-6 低风险 0.39
CDM_260904-170305-017906-566121
2026-09-04T
17:03:38+0000
2.656 km
极远距离
1.516553E-6 低风险 0.39
CDM_260906-125405-017906-933021
2026-09-06T
12:54:13+0000
2.740 km
极远距离
1.442889E-6 低风险 0.38
CDM_260906-124205-017906-831321
2026-09-06T
12:42:59+0000
2.796 km
极远距离
1.401355E-6 低风险 0.38
CDM_260905-165305-017905-802021
NESS (58020)
2026-09-05T
16:53:35+0000
2.902 km
极远距离
1.393003E-6 低风险 0.38
CDM_260904-113905-017906-868621
2026-09-04T
11:39:57+0000
2.743 km
极远距离
1.003957E-6 低风险 0.35